This is the latest recevied weather packets stored in our database for station/object K4KMJ. If no packets are shown the sender has not sent any weather packets the latest 10 day(s).
| Time | Temp. | Humidity | Pressure | Rain* | Wind** | Luminosity | Snow |
|---|---|---|---|---|---|---|---|
| 1777582004 | 32.78° C | 44% | 1010.8 hPa | 0 mm | - | 413 W/m² | - |
| 1777581698 | 32.78° C | 46% | 1011 hPa | 0 mm | - | 344 W/m² | - |
| 1777581392 | 31.67° C | 47% | 1011 hPa | 0 mm | - | 444 W/m² | - |
| 1777581087 | 31.67° C | 47% | 1010.8 hPa | 0 mm | - | 137 W/m² | - |
| 1777580786 | 32.78° C | 47% | 1011.2 hPa | 0 mm | - | 397 W/m² | - |
| 1777580483 | 32.78° C | 47% | 1011.2 hPa | 0 mm | - | 520 W/m² | - |
| 1777580178 | 31.67° C | 47% | 1011.2 hPa | 0 mm | - | 533 W/m² | - |
| 1777579875 | 32.78° C | 48% | 1011.1 hPa | 0 mm | - | 169 W/m² | - |
| 1777579574 | 32.22° C | 48% | 1011.3 hPa | 0 mm | - | 554 W/m² | - |
| 1777579268 | 32.78° C | 48% | 1011.3 hPa | 0 mm | - | 528 W/m² | - |
| 1777578964 | 31.67° C | 48% | 1011.4 hPa | 0 mm | - | 185 W/m² | - |
| 1777578660 | 32.78° C | 46% | 1011.4 hPa | 0 mm | - | 170 W/m² | - |
| 1777578358 | 33.33° C | 47% | 1011.5 hPa | 0 mm | - | 519 W/m² | - |
| 1777578055 | 32.78° C | 47% | 1011.5 hPa | 0 mm | - | 516 W/m² | - |
| 1777577750 | 32.78° C | 47% | 1011.4 hPa | 0 mm | - | 472 W/m² | - |
| 1777577447 | 32.78° C | 47% | 1011.5 hPa | 0 mm | - | 502 W/m² | - |
| 1777577144 | 32.78° C | 48% | 1011.7 hPa | 0 mm | - | 525 W/m² | - |
| 1777576840 | 32.78° C | 48% | 1011.8 hPa | 0 mm | - | 497 W/m² | - |
| 1777576539 | 32.78° C | 48% | 1011.8 hPa | 0 mm | - | 487 W/m² | - |
| 1777576236 | 31.67° C | 49% | 1011.8 hPa | 0 mm | - | 183 W/m² | - |
| 1777575932 | 32.78° C | 49% | 1011.8 hPa | 0 mm | - | 524 W/m² | - |
| 1777575628 | 31.67° C | 49% | 1012.1 hPa | 0 mm | - | 560 W/m² | - |
| 1777575324 | 32.22° C | 48% | 1012.3 hPa | 0 mm | - | 142 W/m² | - |
| 1777575020 | 31.67° C | 49% | 1012.4 hPa | 0 mm | - | 560 W/m² | - |
| 1777574716 | 32.22° C | 48% | 1012.3 hPa | 0 mm | - | 136 W/m² | - |
* Rain latest hour (hover to see other rain measurements)
** Current wind speed in m/s (hover to see current wind gust speed)